Location: Bergnershof
(48.9468°N, 10.9431°E)
Time: 23:01:54
(UTC+00:00)

Resurs 1-3 - Pass Details

Date: 03 March 2021
Orbit: 629 x 633 km, 97.9° (Epoch: 13 April)

Event Time Altitude Azimuth Distance (km) Brightness Sun altitude
Exits shadow 19:38:48 71° 260° (W) 675 3.7 -26.0°
Drops below altitude 10° 19:43:12 10° 342° (NNW) 2,028 6.7 -26.6°
Sets 19:45:25 0° 345° (NNW) 2,941 7.5 -27.0°
